Upington, South Africa

3:07 PM SAST on December 18, 2017 (GMT +0200)
Upington

Weather History for FAUP - October, 2012

Change the Weather History Date:

Tuesday, October 16, 2012

  Actual Average Record
Temperature  
Mean Temperature 76 °F -  
Max Temperature 92 °F 87 °F 102 °F (2002)
Min Temperature 59 °F 58 °F 42 °F (2011)
Cooling Degree Days 10    
Growing Degree Days 26 (Base 50)    
Moisture  
Dew Point 53 °F    
Average Humidity 48    
Maximum Humidity 94    
Minimum Humidity 14    
Precipitation  
Precipitation 0.00 in 0.00 in - ()
Sea Level Pressure  
Sea Level Pressure 29.93 in    
Wind  
Wind Speed 5 mph ()    
Max Wind Speed 13 mph    
Max Gust Speed -    
Visibility 6.7 miles    
Events      
Averages and records for this station are not official NWS values.
T = Trace of Precipitation, MM = Missing Value Source: Averaged Metar Reports

Daily Weather History Graph

Daily Weather History Graph

Search for Another Location

Airport or City:

Trip Planner

Search our weather history database for the weather conditions in past years. The results will help you decide how hot, cold, wet, or windy it might be!

Date:

Astronomy

Oct. 16, 2012 Rise Set
Actual Time 5:56 AM SAST 6:44 PM SAST
Civil Twilight 5:32 AM SAST 7:08 PM SAST
Nautical Twilight 5:04 AM SAST 7:36 PM SAST
Astronomical Twilight 4:35 AM SAST 8:05 PM SAST
Moon 6:22 AM SAST (10/16) 8:00 PM SAST (10/16)
Length of Visible Light 13h 35m
Length of Day
12h 47m
New Moon, 1% of the Moon is Illuminated
Oct 16
New Moon
Oct 22
First Quarter
Oct 29
Full
Nov 7
Last Quarter
Nov 14
New

Hourly Weather History & Observations

Time (SAST) Temp. Heat Index Dew Point Humidity Pressure Visibility Wind Dir Wind Speed Gust Speed Precip Events Conditions
12:00 AM 64.4 °F - 55.4 °F 73% 29.95 in - East 12.7 mph - N/A   Unknown
1:00 AM 64.4 °F - 55.4 °F 73% 29.95 in - ENE 4.6 mph - N/A   Unknown
2:00 AM 64 °F - 56 °F 70%  in - Calm Calm - -  
2:00 AM 62.6 °F - 55.4 °F 77% 29.95 in - Calm Calm - N/A   Unknown
3:00 AM 62.6 °F - 57.2 °F 82% 29.95 in - SE 4.6 mph - N/A   Unknown
4:00 AM 60.8 °F - 55.4 °F 82% 29.95 in - South 1.2 mph - N/A   Unknown
5:00 AM 60.8 °F - 57.2 °F 88% 29.95 in 6.2 mi West 1.2 mph - N/A   Partly Cloudy
6:00 AM 59.0 °F - 57.2 °F 94% 29.98 in 6.2 mi SSW 3.5 mph - N/A   Partly Cloudy
7:00 AM 60.8 °F - 57.2 °F 88% 29.98 in 6.2 mi SSW 1.2 mph - N/A   Partly Cloudy
8:00 AM 69 °F - 59 °F 62%  in 16 mi ESE 4.6 mph - -   Haze
8:00 AM 68.0 °F - 57.2 °F 68% 30.01 in 6.2 mi ESE 3.5 mph - N/A   Partly Cloudy
9:00 AM 71.6 °F - 55.4 °F 57% 30.01 in 6.2 mi SE 3.5 mph - N/A   Partly Cloudy
9:32 AM 77.0 °F - 55.4 °F 47% 30.01 in 6.2 mi SE 3.5 mph - N/A   Partly Cloudy
10:00 AM 78.8 °F - 53.6 °F 42% 29.98 in 6.2 mi East 3.5 mph - N/A   Partly Cloudy
10:45 AM 82.4 °F 81.4 °F 53.6 °F 37% 29.98 in 6.2 mi North 4.6 mph - N/A   Partly Cloudy
11:00 AM 80.6 °F - 51.8 °F 37% 29.98 in 6.2 mi NNE 5.8 mph - N/A   Partly Cloudy
12:00 PM 86.0 °F 84.2 °F 53.6 °F 33% 29.95 in 6.2 mi NNE 5.8 mph - N/A   Partly Cloudy
1:00 PM 84.2 °F - 51.8 °F 33% 29.92 in 6.2 mi North 2.3 mph - N/A   Partly Cloudy
1:35 PM 87.8 °F - 51.8 °F 29% 29.89 in 6.2 mi NW 4.6 mph - N/A   Scattered Clouds
2:00 PM 87.8 °F 85.7 °F 53.6 °F 31% 29.89 in 6.2 mi WSW 4.6 mph - N/A   Scattered Clouds
3:00 PM 89.6 °F - 50.0 °F 26% 29.86 in 6.2 mi North 2.3 mph - N/A   Scattered Clouds
4:00 PM 91.4 °F - 48.2 °F 23% 29.83 in 6.2 mi West 2.3 mph - N/A   Scattered Clouds
5:00 PM 92 °F - 49 °F 14%  in 25 mi West 6.9 mph - -   Scattered Clouds
5:00 PM 91.4 °F - 48.2 °F 23% 29.83 in 6.2 mi West 6.9 mph - N/A   Partly Cloudy
6:00 PM 86.0 °F - 50.0 °F 29% 29.83 in 6.2 mi SW 10.4 mph - N/A   Partly Cloudy
7:00 PM 82.4 °F - 51.8 °F 35% 29.83 in 6.2 mi SW 12.7 mph - N/A   Partly Cloudy
8:00 PM 80 °F - 51 °F 26%  in 25 mi SW 9.2 mph - -   Scattered Clouds
8:00 PM 78.8 °F - 50.0 °F 36% 29.86 in 6.2 mi SW 8.1 mph - N/A   Partly Cloudy
9:00 PM 78.8 °F - 50.0 °F 36% 29.89 in - WSW 6.9 mph - N/A   Unknown
10:00 PM 77.0 °F - 46.4 °F 34% 29.89 in - SW 8.1 mph - N/A   Unknown
11:00 PM 76 °F - 43 °F 20%  in - WSW 10.4 mph - -  
11:00 PM 75.2 °F - 42.8 °F 31% 29.89 in - WSW 9.2 mph - N/A   Unknown